Weather reports worldwide

Advertisment
Falsterbo A, Sweden (2615): temperature & dewpoint: 10.12.2019 14:00:00 - 16.12.2019 14:00:00 (CET)Falsterbo A, Sweden (2615): wind speed & gusts: 10.12.2019 14:00:00 - 16.12.2019 14:00:00 (CET)Falsterbo A, Sweden (2615): wind direction: 10.12.2019 14:00:00 - 16.12.2019 14:00:00 (CET)Falsterbo A, Sweden (2615): reduced air pressure: 10.12.2019 14:00:00 - 16.12.2019 14:00:00 (CET)Falsterbo A, Sweden (2615): visibility: 10.12.2019 14:00:00 - 16.12.2019 14:00:00 (CET)Falsterbo A, Sweden (2615): precipitation: 10.12.2019 14:00:00 - 16.12.2019 14:00:00 (CET)
Date & Time tt [°C] td [°C] ff [km/h] ff [kn] fx [km/h] fx [kn] dd ppp [hPa] vv [km] rr [mm]
16.12.2019 14:00:00 6,4 4,3 37 20 45 25 SSW 1004,4 27 0,0
16.12.2019 13:00:00 6,5 4,0 35 19 48 26 SSW 1004,7 23 0,0
16.12.2019 12:00:00 6,3 3,6 38 21 49 26 SSW 1005,1 25 0,0
16.12.2019 11:00:00 6,3 4,0 38 20 48 26 SSW 1005,5 21 0,0
16.12.2019 10:00:00 6,0 4,0 35 19 49 26 SSW 1005,3 20 0,0
16.12.2019 09:00:00 5,8 4,1 37 20 46 25 SSW 1005,4 17 0,0
16.12.2019 08:00:00 6,1 4,1 31 17 42 23 SW 1005,3 16 0,0
16.12.2019 07:00:00 6,3 4,3 29 16 41 22 SW 1004,9 19 0,0
16.12.2019 06:00:00 6,2 4,5 29 16 42 23 SW 1004,5 19 0,0
16.12.2019 05:00:00 6,6 4,9 30 16 39 21 SW 1004,0 25 0,0
16.12.2019 04:00:00 6,5 5,0 32 17 44 24 WSW 1003,8 25 0,0
16.12.2019 03:00:00 6,2 4,7 36 20 48 26 WSW 1003,2 16 0,0
16.12.2019 02:00:00 6,2 4,5 40 22 50 27 WSW 1002,4 14 0,0
16.12.2019 01:00:00 6,1 3,8 37 20 52 28 WSW 1001,6 15 0,0
16.12.2019 00:00:00 6,2 3,2 37 20 57 31 W 1000,5 21 0,0
15.12.2019 23:00:00 6,2 3,0 46 25 58 32 WSW 999,3 24 0,0
15.12.2019 22:00:00 6,3 3,3 43 23 60 32 W 998,1 16 0,0
15.12.2019 21:00:00 5,8 3,6 48 26 81 44 W 996,6 10 0,0
15.12.2019 20:00:00 6,1 3,6 58 32 85 46 W 994,6 16 0,0
15.12.2019 19:00:00 6,0 3,8 58 31 94 51 W 992,6 9 0,2
15.12.2019 18:00:00 5,8 3,5 73 40 94 51 W 990,5 9 0,0
15.12.2019 17:00:00 6,6 3,4 73 39 100 54 WSW 988,8 10 0,0
15.12.2019 16:00:00 6,6 2,3 66 36 90 49 WSW 988,3 16 0,0
15.12.2019 15:00:00 6,7 2,6 61 33 83 45 WSW 988,3 18 0,0
15.12.2019 14:00:00 5,4 3,6 62 34 104 56 WSW 988,2 19 3,0
15.12.2019 13:00:00 6,4 5,5 46 25 79 42 SW 987,4 12 0,1
15.12.2019 12:00:00 4,8 4,5 50 27 68 37 S 987,9 11 1,1
15.12.2019 11:00:00 4,5 2,5 55 30 72 39 S 989,0 16 0,0
15.12.2019 10:00:00 5,4 3,2 44 24 57 31 S 990,5 17 0,0
15.12.2019 09:00:00 4,9 2,9 38 21 51 27 SSW 991,2 19 0,0
15.12.2019 08:00:00 5,0 2,9 39 21 48 26 SSW 991,5 22 0,0
15.12.2019 07:00:00 5,0 2,2 37 20 47 26 SW 992,3 23 0,0
15.12.2019 06:00:00 5,0 2,7 38 21 58 31 SW 992,0 20 0,0
15.12.2019 05:00:00 5,5 3,3 45 24 59 32 WSW 992,1 19 0,0
15.12.2019 04:00:00 5,6 3,3 49 26 66 36 WSW 991,6 19 0,0
15.12.2019 03:00:00 5,8 3,3 51 28 67 36 WSW 991,3 21 0,0
15.12.2019 02:00:00 5,9 3,4 50 27 69 37 WSW 990,4 25 0,0
15.12.2019 01:00:00 5,8 3,3 54 29 69 38 WSW 989,2 25 0,0
15.12.2019 00:00:00 5,8 3,3 54 29 69 37 WSW 988,3 22 0,0
14.12.2019 23:00:00 6,0 3,5 50 27 70 38 WSW 987,4 13 0,0
14.12.2019 22:00:00 6,1 3,4 55 30 68 37 WSW 985,9 21 0,0
14.12.2019 21:00:00 6,1 4,1 51 28 67 36 WSW 985,1 20 0,6
14.12.2019 20:00:00 5,7 4,3 48 26 63 34 SW 984,5 11 0,9
14.12.2019 19:00:00 5,8 3,5 43 23 59 32 SW 984,2 39 0,0
14.12.2019 18:00:00 5,7 3,9 41 22 53 29 SW 984,0 37 0,0
14.12.2019 17:00:00 5,1 3,9 36 20 50 27 SW 983,7 48 0,2
14.12.2019 16:00:00 5,5 4,1 36 19 46 25 SW 983,2 18 0,1
14.12.2019 15:00:00 5,4 3,1 35 19 51 28 SW 982,8 39 0,0
14.12.2019 14:00:00 5,8 4,4 33 18 44 24 SW 982,1 15 0,0
14.12.2019 13:00:00 5,6 4,9 32 17 47 26 SW 981,8 12 0,0
14.12.2019 12:00:00 5,2 5,1 32 17 44 24 SSW 981,6 15 0,0
14.12.2019 11:00:00 4,4 4,3 28 15 36 19 SSW 981,7 6 0,0
14.12.2019 10:00:00 3,2 2,9 27 14 37 20 S 981,7 14 0,5
14.12.2019 09:00:00 3,3 2,7 29 15 35 19 S 981,6 12 0,2
14.12.2019 08:00:00 3,0 2,3 27 15 36 19 S 981,4 11 0,4
14.12.2019 07:00:00 3,5 2,3 29 16 39 21 S 981,4 11 0,0
14.12.2019 06:00:00 3,7 1,9 28 15 36 20 S 981,7 13 0,0
14.12.2019 05:00:00 3,6 1,0 29 16 38 20 SSE 981,9 15 0,0
14.12.2019 04:00:00 4,1 0,4 22 12 29 16 SSE 982,1 25 0,0
14.12.2019 03:00:00 3,9 -0,1 20 11 34 18 SSE 982,7 32 0,0
14.12.2019 02:00:00 3,9 -0,1 21 11 36 19 SSE 983,1 38 0,0
14.12.2019 01:00:00 3,7 0,0 23 12 35 19 SSE 983,3 31 0,0
14.12.2019 00:00:00 3,8 0,8 26 14 35 19 S 983,6 15 0,0
13.12.2019 23:00:00 4,0 0,9 27 15 33 18 S 983,9 12 0,0
13.12.2019 22:00:00 4,3 1,7 23 13 29 16 S 984,2 10 0,0
13.12.2019 21:00:00 4,7 1,7 24 13 33 18 S 984,0 12 0,0
13.12.2019 20:00:00 4,8 1,8 24 13 - - SE 984,2 13 0,0
13.12.2019 19:00:00 4,8 1,6 29 16 37 20 SE 984,4 14 0,0
13.12.2019 18:00:00 4,6 1,6 30 16 - - SSE 984,6 18 0,0
13.12.2019 17:00:00 4,7 2,2 30 16 41 22 SE 984,7 15 0,0
13.12.2019 16:00:00 5,0 2,4 29 16 41 22 ESE 984,7 20 0,0
13.12.2019 15:00:00 5,1 1,9 31 17 42 23 ESE 985,0 33 0,0
13.12.2019 14:00:00 4,8 1,6 31 17 43 23 ESE 985,1 32 0,0
13.12.2019 13:00:00 5,2 2,2 36 19 46 25 SE 985,7 26 0,0
13.12.2019 12:00:00 5,1 2,1 37 20 46 25 ESE 986,3 32 0,0
13.12.2019 11:00:00 4,9 1,9 36 19 - - SE 987,0 34 0,0
13.12.2019 10:00:00 4,8 2,3 36 19 48 26 SE 987,7 23 0,0
13.12.2019 09:00:00 4,9 2,6 39 21 49 26 SE 987,9 27 0,0
13.12.2019 08:00:00 4,9 2,4 37 20 51 27 SE 988,3 34 0,0
13.12.2019 07:00:00 5,0 2,4 36 20 53 29 SSE 988,8 22 0,0
13.12.2019 06:00:00 4,5 2,0 38 20 49 26 SSE 989,4 46 0,0
13.12.2019 05:00:00 4,1 2,3 34 18 45 25 SSE 990,3 40 0,0
13.12.2019 04:00:00 4,7 2,7 33 18 44 24 SSE 991,3 40 0,0
13.12.2019 03:00:00 4,2 2,7 38 20 45 24 S 992,1 26 0,0
13.12.2019 02:00:00 4,6 3,1 35 19 48 26 S 993,0 20 0,0
13.12.2019 01:00:00 4,9 3,2 30 16 39 21 S 993,7 23 0,0
13.12.2019 00:00:00 5,0 3,5 29 15 42 23 S 994,5 22 0,0
12.12.2019 23:00:00 5,2 3,5 32 17 42 23 S 995,1 19 0,0
12.12.2019 22:00:00 5,5 3,3 31 17 40 22 SSW 995,4 21 0,0
12.12.2019 21:00:00 5,4 3,4 32 17 43 23 SSW 995,9 21 0,0
12.12.2019 20:00:00 5,7 3,7 33 18 42 23 SSW 996,3 20 0,0
12.12.2019 19:00:00 5,7 3,7 29 16 39 21 SW 996,5 19 0,0
12.12.2019 18:00:00 5,5 3,7 30 16 - - SW 996,6 19 0,0
12.12.2019 17:00:00 5,4 3,7 25 14 37 20 SW 997,0 16 0,0
12.12.2019 16:00:00 5,4 3,2 29 15 37 20 SW 997,3 20 0,0
12.12.2019 15:00:00 5,5 3,3 26 14 34 18 SW 997,6 16 0,0
12.12.2019 14:00:00 5,1 2,6 27 14 35 19 SW 997,7 14 0,0
12.12.2019 13:00:00 5,6 3,8 25 14 32 17 WSW 997,8 13 0,0
12.12.2019 12:00:00 5,7 5,0 23 13 27 15 WSW 998,3 13 0,0
12.12.2019 11:00:00 5,5 5,2 22 12 26 14 WSW 998,5 50 0,0
12.12.2019 10:00:00 5,3 5,2 18 10 23 12 WSW 999,0 50 0,0
12.12.2019 09:00:00 4,6 4,5 13 7 19 10 SW 999,0 11 0,2
12.12.2019 08:00:00 4,3 4,2 16 9 24 13 S 999,3 18 0,3
12.12.2019 07:00:00 3,9 3,8 17 9 22 12 S 999,4 32 0,1
12.12.2019 06:00:00 3,8 3,7 15 8 18 10 S 999,6 23 0,5
12.12.2019 05:00:00 3,8 3,7 16 8 19 11 S 1000,1 16 0,5
12.12.2019 04:00:00 4,0 3,9 14 8 19 10 S 1000,7 43 0,4
12.12.2019 03:00:00 4,2 4,1 16 9 20 11 S 1001,1 15 0,8
12.12.2019 02:00:00 4,4 4,3 14 7 16 9 SSW 1001,6 19 0,7
12.12.2019 01:00:00 4,4 4,3 14 8 23 12 S 1002,1 32 0,3
12.12.2019 00:00:00 4,8 4,7 18 10 24 13 S 1002,7 17 0,4
11.12.2019 23:00:00 4,8 4,7 17 9 23 13 S 1003,2 19 0,3
11.12.2019 22:00:00 4,9 4,8 20 11 26 14 S 1003,7 20 0,4
11.12.2019 21:00:00 5,2 5,1 22 12 29 15 S 1003,9 17 0,4
11.12.2019 20:00:00 5,3 5,2 22 12 30 16 SSW 1004,3 10 0,5
11.12.2019 19:00:00 5,4 5,3 25 13 30 16 SSW 1004,7 14 0,4
11.12.2019 18:00:00 5,5 5,4 21 11 28 15 SSW 1004,9 13 0,4
11.12.2019 17:00:00 5,4 5,3 22 12 29 16 SW 1005,2 13 0,3
11.12.2019 16:00:00 5,5 5,4 23 12 29 16 SW 1005,5 14 0,3
11.12.2019 15:00:00 5,5 5,4 23 13 32 17 SW 1005,8 11 0,5
11.12.2019 14:00:00 5,5 5,4 24 13 36 19 SW 1005,9 9 0,8
11.12.2019 13:00:00 5,5 5,2 29 15 40 22 SW 1006,4 10 1,0
11.12.2019 12:00:00 5,4 5,1 33 18 46 25 SW 1006,6 10 0,7
11.12.2019 11:00:00 5,3 5,0 38 20 48 26 SW 1007,1 12 1,0
11.12.2019 10:00:00 5,1 4,7 37 20 56 30 SW 1007,0 12 0,5
11.12.2019 09:00:00 5,1 4,2 44 24 62 33 SW 1006,9 14 0,1
11.12.2019 08:00:00 5,3 3,6 44 24 62 34 SW 1006,9 19 0,0
11.12.2019 07:00:00 5,1 3,4 50 27 67 36 SSW 1006,9 20 0,0
11.12.2019 06:00:00 4,8 3,3 50 27 64 34 SSW 1007,1 22 0,0
11.12.2019 05:00:00 4,2 2,4 50 27 69 38 SSW 1007,5 11 0,0
11.12.2019 04:00:00 5,0 1,5 44 24 67 36 SSW 1008,1 20 0,1
11.12.2019 03:00:00 5,2 1,1 54 29 71 39 S 1008,5 26 0,0
11.12.2019 02:00:00 5,2 1,3 56 30 72 39 S 1009,4 26 0,0
11.12.2019 01:00:00 5,4 1,3 52 28 66 36 S 1010,7 36 0,0
11.12.2019 00:00:00 5,1 1,4 51 28 69 37 S 1012,2 25 0,0
10.12.2019 23:00:00 5,1 2,1 51 28 64 34 S 1013,2 22 0,0
10.12.2019 22:00:00 5,1 2,3 47 26 58 32 S 1014,4 24 0,0
10.12.2019 21:00:00 5,0 2,5 41 22 55 30 SSW 1015,7 22 0,0
10.12.2019 20:00:00 5,2 2,5 40 22 52 28 SSW 1016,4 23 0,0
10.12.2019 19:00:00 5,5 2,5 36 19 45 24 SSW 1016,9 27 0,0
10.12.2019 18:00:00 5,7 2,5 29 15 34 19 SSW 1017,9 30 0,0
10.12.2019 17:00:00 4,8 2,3 27 14 35 19 SSW 1018,6 30 0,0
10.12.2019 16:00:00 4,6 2,1 21 11 26 14 SW 1019,1 29 0,0
10.12.2019 15:00:00 4,7 1,0 20 11 28 15 SW 1019,4 49 0,0
10.12.2019 14:00:00 5,2 0,2 18 10 24 13 SW 1019,5 50 0,0

tt = temperature
td = dewpoint
ff = wind speed
fx = gusts
dd = wind direction
ppp = reduced air pressure
vv = visibility
rr = precipitation

Next stations